Starlink 3681

operational
NORAD ID: 51968 Int'l Des: 2022-025 Owner: SPXS Country: US Constellation: starlink
LEOCIRCULARSTARLINK_TYPE

Über Starlink 3681

Beschreibung wird geladen...

Live-Position

3D-Globus wird geladen...

Nächste Überflüge

Höhenverlauf

Altitude vs Time

uPlot chart will show altitude changes over time

Zweizeiliger Elementsatz

1 51968U 22025N 25259.23473778 -.00000925 00000-0 -43209-4 0 9994
2 51968 53.0549 90.0852 0001400 89.2705 270.8444 15.06400428194684
Epoch: 16. Sept. 2025 • Age: 9 hours

Aktueller Status

Höhe 566.7 km
Geschwindigkeit 7.58 km/s
Subsatellitenpunkt -53.20°S, 141.44°E
Startdatum 9. März 2022
Alter 3.5 years
Typ internet

Technische Details

Klassifizierung Payload
Masse 297.00 kg
Trockenmasse 275.00 kg
Gesamtmasse 297.00 kg
Länge 0.20 m
Durchmesser 2.80 m
Spannweite 9.00 m
Form Box + pan
Hersteller SPXS
Bus-Typ Starlink
Phasenstatus In Orbit
Besitzer/Staat SPXS/US

Große Konstellationen

Loading constellations...